| time (UTC) | temp F | wind direction | speed MPH | gust MPH | rain 1hr in | rain 24hr in | rain mn in | humidity % | barometer mb |
| 20260905114508 | 52 | 269 | 15.0 | 26.0 | 0.00 | 0.26 | 0.18 | 82 | 1009.2 |
| 20260905113008 | 52 | 218 | 12.0 | 25.0 | 0.00 | 0.26 | 0.18 | 82 | 1008.8 |
| 20260905111506 | 52 | 274 | 12.0 | 24.0 | 0.00 | 0.26 | 0.18 | 81 | 1008.5 |
| 20260905110010 | 52 | 256 | 13.0 | 23.0 | 0.00 | 0.27 | 0.18 | 82 | 1008.2 |
| 20260905104505 | 52 | 256 | 12.0 | 23.0 | 0.00 | 0.27 | 0.18 | 82 | 1008.2 |
| 20260905103005 | 52 | 262 | 12.0 | 23.0 | 0.00 | 0.27 | 0.18 | 82 | 1007.9 |
| 20260905101513 | 52 | 281 | 15.0 | 24.0 | 0.00 | 0.27 | 0.18 | 81 | 1007.4 |
| 20260905100003 | 52 | 301 | 10.0 | 23.0 | 0.00 | 0.27 | 0.18 | 80 | 1007.0 |
| 20260905094503 | 52 | 302 | 9.0 | 23.0 | 0.00 | 0.27 | 0.18 | 80 | 1007.0 |
| 20260905093003 | 51 | 252 | 10.0 | 19.0 | 0.00 | 0.27 | 0.18 | 81 | 1006.7 |
| 20260905091614 | 51 | 293 | 8.0 | 18.0 | 0.00 | 0.27 | 0.18 | 81 | 1006.4 |
| 20260905090057 | 51 | 261 | 11.0 | 22.0 | 0.00 | 0.27 | 0.18 | 80 | 1006.0 |
| 20260905084556 | 51 | 253 | 13.0 | 24.0 | 0.00 | 0.27 | 0.18 | 85 | 1005.6 |
| 20260905083056 | 50 | 272 | 11.0 | 20.0 | 0.00 | 0.27 | 0.18 | 91 | 1005.6 |
| 20260905081551 | 50 | 265 | 11.0 | 22.0 | 0.00 | 0.27 | 0.18 | 91 | 1005.0 |
| 20260905080050 | 51 | 296 | 11.0 | 19.0 | 0.00 | 0.27 | 0.18 | 91 | 1004.6 |
| 20260905074558 | 51 | 288 | 9.0 | 18.0 | 0.01 | 0.27 | 0.18 | 91 | 1004.2 |
| 20260905073101 | 51 | 281 | 9.0 | 17.0 | 0.01 | 0.27 | 0.18 | 91 | 1004.0 |
| 20260905071548 | 50 | 270 | 12.0 | 21.0 | 0.02 | 0.27 | 0.18 | 91 | 1004.2 |
| 20260905070048 | 50 | 266 | 10.0 | 22.0 | 0.02 | 0.27 | 0.18 | 91 | 1004.1 |
| 20260905063048 | 50 | 259 | 11.0 | 26.0 | 0.06 | 0.26 | 0.17 | 91 | 1004.0 |
| 20260905061601 | 50 | 267 | 15.0 | 26.0 | 0.05 | 0.25 | 0.17 | 91 | 1003.8 |
| 20260905060047 | 49 | 295 | 13.0 | 29.0 | 0.05 | 0.25 | 0.17 | 89 | 1003.8 |
| 20260905054541 | 53 | 303 | 12.0 | 21.0 | 0.02 | 0.20 | 0.12 | 89 | 1002.9 |
| 20260905053039 | 53 | 290 | 14.0 | 23.0 | 0.02 | 0.20 | 0.12 | 89 | 1002.8 |
| 20260905051540 | 53 | 270 | 9.0 | 22.0 | 0.02 | 0.20 | 0.12 | 90 | 1002.7 |
| 20260905050039 | 52 | 248 | 9.0 | 25.0 | 0.02 | 0.20 | 0.12 | 89 | 1002.8 |
| 20260905044550 | 58 | 252 | 11.0 | 24.0 | 0.00 | 0.18 | 0.09 | 68 | 1002.7 |
| 20260905043036 | 61 | 261 | 12.0 | 23.0 | 0.00 | 0.18 | 0.09 | 59 | 1002.1 |
| 20260905041535 | 62 | 283 | 13.0 | 23.0 | 0.00 | 0.18 | 0.09 | 57 | 1002.1 |
| 20260905040039 | 60 | 274 | 17.0 | 38.0 | 0.00 | 0.18 | 0.09 | 56 | 1002.1 |
| 20260905034547 | 62 | 305 | 11.0 | 28.0 | 0.00 | 0.18 | 0.09 | 55 | 1002.0 |
| 20260905033051 | 61 | 272 | 12.0 | 28.0 | 0.00 | 0.18 | 0.09 | 59 | 1002.1 |
| 20260905031532 | 61 | 288 | 12.0 | 33.0 | 0.00 | 0.18 | 0.09 | 59 | 1002.4 |
| 20260905030030 | 62 | 300 | 12.0 | 34.0 | 0.00 | 0.18 | 0.09 | 60 | 1002.5 |
| 20260905024532 | 61 | 304 | 16.0 | 30.0 | 0.00 | 0.18 | 0.09 | 63 | 1002.6 |
| 20260905023100 | 60 | 272 | 17.0 | 30.0 | 0.00 | 0.18 | 0.09 | 65 | 1002.6 |
| 20260905021530 | 55 | 260 | 20.0 | 32.0 | 0.00 | 0.18 | 0.09 | 87 | 1002.6 |
| 20260905020030 | 55 | 278 | 15.0 | 32.0 | 0.03 | 0.18 | 0.09 | 88 | 1002.7 |
| 20260905014529 | 54 | 289 | 12.0 | 26.0 | 0.03 | 0.18 | 0.09 | 90 | 1002.6 |
| 20260905013029 | 53 | 342 | 13.0 | 23.0 | 0.03 | 0.18 | 0.09 | 90 | 1002.7 |
| 20260905011524 | 52 | 300 | 12.0 | 36.0 | 0.03 | 0.18 | 0.09 | 85 | 1003.0 |
| 20260905010023 | 62 | 240 | 23.0 | 37.0 | 0.00 | 0.15 | 0.06 | 62 | 1002.9 |
| 20260905004519 | 62 | 275 | 11.0 | 30.0 | 0.00 | 0.15 | 0.06 | 64 | 1002.3 |
| 20260905003017 | 62 | 281 | 9.0 | 24.0 | 0.00 | 0.15 | 0.06 | 67 | 1002.1 |
| 20260905001520 | 61 | 281 | 7.0 | 16.0 | 0.00 | 0.15 | 0.06 | 69 | 1002.2 |
| 20260905000014 | 61 | 311 | 9.0 | 20.0 | 0.00 | 0.15 | 0.06 | 69 | 1002.3 |
| 20260904234517 | 60 | 319 | 6.0 | 16.0 | 0.00 | 0.15 | 0.06 | 74 | 1002.4 |
| 20260904233011 | 60 | 298 | 7.0 | 20.0 | 0.00 | 0.15 | 0.06 | 73 | 1002.6 |
| 20260904231512 | 60 | 312 | 9.0 | 23.0 | 0.00 | 0.15 | 0.06 | 72 | 1002.4 |
| 20260904230010 | 60 | 297 | 6.0 | 20.0 | 0.00 | 0.15 | 0.06 | 74 | 1002.6 |
| 20260904224507 | 59 | 339 | 5.0 | 15.0 | 0.00 | 0.15 | 0.06 | 75 | 1002.6 |
| 20260904223007 | 59 | 336 | 8.0 | 19.0 | 0.00 | 0.15 | 0.06 | 75 | 1002.5 |
| 20260904221506 | 59 | 342 | 10.0 | 16.0 | 0.00 | 0.15 | 0.06 | 76 | 1002.7 |
| 20260904220004 | 58 | 8 | 4.0 | 11.0 | 0.00 | 0.15 | 0.06 | 77 | 1002.8 |
| 20260904214600 | 58 | 18 | 7.0 | 14.0 | 0.00 | 0.15 | 0.06 | 78 | 1002.9 |
| 20260904213059 | 57 | 19 | 7.0 | 12.0 | 0.00 | 0.15 | 0.06 | 78 | 1003.0 |
| 20260904211600 | 58 | 42 | 6.0 | 11.0 | 0.00 | 0.15 | 0.06 | 78 | 1003.1 |
| 20260904204653 | 57 | 1 | 4.0 | 8.0 | 0.00 | 0.15 | 0.06 | 79 | 1003.8 |
| 20260904203053 | 57 | 48 | 3.0 | 8.0 | 0.01 | 0.15 | 0.06 | 81 | 1003.4 |
| 20260904201551 | 57 | 343 | 2.0 | 4.0 | 0.01 | 0.15 | 0.06 | 82 | 1003.5 |
| 20260904200051 | 56 | 352 | 0.0 | 3.0 | 0.01 | 0.15 | 0.06 | 83 | 1003.7 |
| 20260904194555 | 56 | 335 | 1.0 | 9.0 | 0.01 | 0.15 | 0.06 | 82 | 1003.7 |
| 20260904193049 | 57 | 27 | 6.0 | 15.0 | 0.00 | 0.14 | 0.06 | 81 | 1003.4 |
| 20260904191549 | 57 | 359 | 8.0 | 20.0 | 0.01 | 0.14 | 0.06 | 80 | 1003.6 |
| 20260904190044 | 57 | 10 | 9.0 | 21.0 | 0.02 | 0.14 | 0.06 | 79 | 1003.8 |
| 20260904184547 | 58 | 292 | 11.0 | 25.0 | 0.02 | 0.14 | 0.06 | 77 | 1004.2 |
| 20260904183040 | 58 | 329 | 7.0 | 21.0 | 0.02 | 0.14 | 0.06 | 78 | 1004.5 |
| 20260904181544 | 58 | 288 | 9.0 | 21.0 | 0.01 | 0.13 | 0.05 | 77 | 1004.6 |
| 20260904180037 | 58 | 296 | 7.0 | 13.0 | 0.00 | 0.13 | 0.04 | 77 | 1005.0 |
| 20260904174559 | 58 | 300 | 1.0 | 9.0 | 0.00 | 0.13 | 0.04 | 76 | 1005.6 |
| 20260904173036 | 59 | 349 | 5.0 | 16.0 | 0.01 | 0.13 | 0.04 | 76 | 1004.8 |
| 20260904171530 | 59 | 25 | 8.0 | 23.0 | 0.02 | 0.13 | 0.04 | 76 | 1004.4 |
| 20260904170027 | 59 | 351 | 12.0 | 25.0 | 0.02 | 0.13 | 0.04 | 77 | 1004.5 |
| 20260904164524 | 59 | 11 | 9.0 | 23.0 | 0.02 | 0.13 | 0.04 | 77 | 1005.3 |
| 20260904163022 | 59 | 5 | 4.0 | 21.0 | 0.01 | 0.12 | 0.03 | 79 | 1006.1 |
| 20260904161519 | 58 | 42 | 3.0 | 7.0 | 0.00 | 0.11 | 0.02 | 79 | 1006.4 |
| 20260904160016 | 58 | 18 | 4.0 | 18.0 | 0.00 | 0.11 | 0.02 | 79 | 1006.7 |
| 20260904154513 | 57 | 360 | 8.0 | 15.0 | 0.00 | 0.11 | 0.02 | 80 | 1006.7 |
| 20260904153010 | 57 | 41 | 5.0 | 13.0 | 0.00 | 0.11 | 0.02 | 81 | 1007.0 |
| 20260904151507 | 57 | 6 | 8.0 | 13.0 | 0.00 | 0.11 | 0.02 | 81 | 1008.0 |
| 20260904150009 | 56 | 6 | 7.0 | 15.0 | 0.02 | 0.11 | 0.02 | 83 | 1008.2 |
| 20260904144601 | 56 | 4 | 7.0 | 14.0 | 0.06 | 0.11 | 0.02 | 83 | 1008.6 |
| 20260904143101 | 55 | 14 | 3.0 | 6.0 | 0.06 | 0.11 | 0.02 | 84 | 1008.6 |
| 20260904141554 | 56 | 9 | 4.0 | 6.0 | 0.08 | 0.11 | 0.02 | 84 | 1009.2 |
| 20260904140052 | 56 | 328 | 2.0 | 7.0 | 0.06 | 0.09 | 0.00 | 83 | 1009.7 |
| 20260904134548 | 57 | 342 | 7.0 | 13.0 | 0.03 | 0.05 | 0.05 | 81 | 1009.5 |
| 20260904133054 | 57 | 51 | 5.0 | 15.0 | 0.03 | 0.05 | 0.05 | 81 | 1009.8 |
| 20260904131544 | 56 | 24 | 6.0 | 11.0 | 0.02 | 0.03 | 0.03 | 80 | 1010.2 |
| 20260904130042 | 56 | 18 | 2.0 | 6.0 | 0.01 | 0.02 | 0.02 | 79 | 1010.1 |
| 20260904124545 | 56 | 352 | 4.0 | 11.0 | 0.00 | 0.02 | 0.02 | 79 | 1010.4 |
| 20260904123103 | 55 | 41 | 2.0 | 6.0 | 0.00 | 0.02 | 0.02 | 81 | 1010.4 |
| 20260904121537 | 54 | 30 | 2.0 | 3.0 | 0.01 | 0.02 | 0.02 | 82 | 1011.1 |
| 20260904120039 | 54 | 89 | 0.0 | 1.0 | 0.01 | 0.02 | 0.02 | 83 | 1011.3 |